When you browse on this site, cookies collect data to enhance your experience and personalize the content and advertising you see.
Visit our Privacy Policy to learn more. By continuing to use the site, you agree to this use of cookies and data.
  • In Spain
  • List of Countries
  • For 7 days
  • Water Temperature
  • Weather Map
  • Weather Widgets
  • user-avatar
    Login

    Hourly Weather Bahury

    Today, 16 December, Monday

    Time Temperature Precipitation Wind Pressure Humidity
    00:00 -2°C° 0 mm 4 mps 739 mmHg 92%
    01:00 -1°C° 0 mm 4 mps 739 mmHg 92%
    02:00 -1°C° 0 mm 4 mps 739 mmHg 94%
    03:00 -1°C° 0 mm 4 mps 738 mmHg 94%
    04:00 0°C° 0 mm 5 mps 738 mmHg 94%
    05:00 0°C° 0 mm 5 mps 738 mmHg 94%
    06:00 0°C° 0 mm 5 mps 738 mmHg 92%
    07:00 +1°C° 0 mm 5 mps 738 mmHg 91%
    08:00 +1°C° 0 mm 5 mps 738 mmHg 89%
    09:00 +1°C° 0 mm 5 mps 738 mmHg 86%
    10:00 +1°C° 0 mm 5 mps 738 mmHg 84%
    11:00 +1°C° 0 mm 6 mps 738 mmHg 82%
    12:00 +1°C° 0 mm 6 mps 739 mmHg 83%
    13:00 0°C° 0 mm 7 mps 739 mmHg 85%
    14:00 0°C° 0 mm 7 mps 739 mmHg 86%
    15:00 0°C° 0.1 mm 7 mps 740 mmHg 83%
    16:00 +1°C° 0.1 mm 6 mps 740 mmHg 79%
    17:00 +1°C° 0.1 mm 6 mps 741 mmHg 76%
    18:00 +1°C° 0 mm 6 mps 741 mmHg 77%
    19:00 +1°C° 0 mm 5 mps 742 mmHg 79%
    20:00 +1°C° 0 mm 5 mps 743 mmHg 80%
    21:00 +1°C° 0 mm 5 mps 743 mmHg 84%
    22:00 0°C° 0 mm 4 mps 743 mmHg 87%
    23:00 0°C° 0 mm 4 mps 744 mmHg 90%

    Tomorrow, 17 December, Tuesday

    Time Temperature Precipitation Wind Pressure Humidity
    00:00 -1°C° 0 mm 4 mps 744 mmHg 92%
    01:00 0°C° 0 mm 3 mps 745 mmHg 93%
    02:00 -1°C° 0 mm 3 mps 745 mmHg 94%
    03:00 -1°C° 0 mm 3 mps 745 mmHg 94%
    04:00 -1°C° 0 mm 3 mps 745 mmHg 94%
    05:00 -1°C° 0 mm 3 mps 744 mmHg 94%
    06:00 0°C° 0 mm 3 mps 744 mmHg 93%
    07:00 0°C° 0 mm 3 mps 744 mmHg 91%
    08:00 0°C° 0 mm 3 mps 744 mmHg 90%
    09:00 0°C° 0.1 mm 4 mps 744 mmHg 90%
    10:00 0°C° 0.1 mm 4 mps 743 mmHg 90%
    11:00 0°C° 0.1 mm 4 mps 743 mmHg 90%
    12:00 0°C° 0.7 mm 4 mps 743 mmHg 92%
    13:00 +1°C° 0.7 mm 4 mps 743 mmHg 94%
    14:00 +2°C° 0.7 mm 3 mps 743 mmHg 96%
    15:00 +2°C° 0.8 mm 3 mps 743 mmHg 96%
    16:00 +2°C° 0.8 mm 3 mps 743 mmHg 97%
    17:00 +3°C° 0.8 mm 2 mps 743 mmHg 97%
    18:00 +3°C° 0.3 mm 2 mps 743 mmHg 97%
    19:00 +3°C° 0.3 mm 2 mps 743 mmHg 97%
    20:00 +3°C° 0.3 mm 2 mps 743 mmHg 97%
    21:00 +3°C° 0 mm 2 mps 743 mmHg 97%
    22:00 +4°C° 0 mm 1 mps 744 mmHg 97%
    23:00 +4°C° 0 mm 1 mps 744 mmHg 97%

    Day after tomorrow, 18 December, Wednesday

    Time Temperature Precipitation Wind Pressure Humidity
    00:00 +4°C° 0 mm 1 mps 744 mmHg 97%
    01:00 +4°C° 0 mm 1 mps 744 mmHg 97%
    02:00 +4°C° 0 mm 1 mps 744 mmHg 97%
    03:00 +3°C° 0 mm 2 mps 744 mmHg 97%
    04:00 +3°C° 0 mm 2 mps 744 mmHg 97%
    05:00 +3°C° 0 mm 2 mps 744 mmHg 97%
    06:00 +3°C° 0 mm 2 mps 743 mmHg 97%
    07:00 +2°C° 0 mm 3 mps 743 mmHg 97%
    08:00 +2°C° 0 mm 3 mps 743 mmHg 97%
    09:00 +2°C° 0 mm 3 mps 743 mmHg 95%
    10:00 +3°C° 0 mm 4 mps 743 mmHg 93%
    11:00 +3°C° 0 mm 4 mps 743 mmHg 91%
    12:00 +3°C° 0 mm 4 mps 742 mmHg 92%
    13:00 +3°C° 0 mm 3 mps 742 mmHg 92%
    14:00 +3°C° 0 mm 3 mps 741 mmHg 92%
    15:00 +3°C° 0 mm 3 mps 741 mmHg 93%
    16:00 +3°C° 0 mm 4 mps 741 mmHg 94%
    17:00 +1°C° 0 mm 4 mps 741 mmHg 95%
    18:00 +1°C° 0 mm 4 mps 741 mmHg 95%
    19:00 +2°C° 0 mm 5 mps 741 mmHg 96%
    20:00 +2°C° 0 mm 5 mps 740 mmHg 96%
    21:00 +3°C° 0 mm 6 mps 741 mmHg 93%
    22:00 +3°C° 0 mm 6 mps 741 mmHg 89%
    23:00 +4°C° 0 mm 6 mps 741 mmHg 85%

    19 December, Thursday

    Time Temperature Precipitation Wind Pressure Humidity
    00:00 +3°C° 0 mm 6 mps 741 mmHg 85%
    01:00 +2°C° 0 mm 6 mps 742 mmHg 86%
    02:00 +1°C° 0 mm 6 mps 742 mmHg 86%
    03:00 +1°C° 0 mm 6 mps 742 mmHg 83%
    04:00 +1°C° 0 mm 6 mps 743 mmHg 81%
    05:00 +1°C° 0 mm 6 mps 743 mmHg 78%
    06:00 +1°C° 0 mm 6 mps 743 mmHg 77%
    07:00 +1°C° 0 mm 6 mps 743 mmHg 76%
    08:00 +2°C° 0 mm 6 mps 744 mmHg 76%
    09:00 +2°C° 0 mm 6 mps 744 mmHg 75%
    10:00 +2°C° 0 mm 6 mps 745 mmHg 75%
    11:00 +2°C° 0 mm 6 mps 745 mmHg 75%
    12:00 +2°C° 0 mm 6 mps 746 mmHg 75%
    13:00 +2°C° 0 mm 6 mps 746 mmHg 76%
    14:00 +1°C° 0 mm 5 mps 746 mmHg 77%
    15:00 +1°C° 0 mm 5 mps 747 mmHg 80%
    16:00 0°C° 0 mm 4 mps 747 mmHg 83%
    17:00 0°C° 0 mm 4 mps 748 mmHg 86%
    18:00 -1°C° 0 mm 4 mps 748 mmHg 88%
    19:00 0°C° 0 mm 3 mps 748 mmHg 90%
    20:00 -1°C° 0 mm 3 mps 749 mmHg 92%
    21:00 -1°C° 0 mm 3 mps 749 mmHg 92%
    22:00 -1°C° 0 mm 2 mps 749 mmHg 93%
    23:00 -2°C° 0 mm 2 mps 749 mmHg 94%

    20 December, Friday

    Time Temperature Precipitation Wind Pressure Humidity
    00:00 -2°C° 0 mm 2 mps 749 mmHg 95%
    01:00 -2°C° 0 mm 2 mps 750 mmHg 95%
    02:00 -2°C° 0 mm 2 mps 750 mmHg 96%
    03:00 -2°C° 0 mm 2 mps 750 mmHg 96%
    04:00 -2°C° 0 mm 2 mps 750 mmHg 95%
    05:00 0°C° 0 mm 1 mps 750 mmHg 95%
    06:00 0°C° 0 mm 1 mps 750 mmHg 93%
    07:00 0°C° 0 mm 1 mps 750 mmHg 91%
    08:00 0°C° 0 mm 1 mps 750 mmHg 90%
    09:00 +1°C° 0 mm 1 mps 750 mmHg 85%
    10:00 0°C° 0 mm 0 mps 750 mmHg 81%
    11:00 +1°C° 0 mm 0 mps 751 mmHg 76%
    12:00 +2°C° 0 mm 1 mps 750 mmHg 75%
    13:00 +2°C° 0 mm 1 mps 750 mmHg 75%
    14:00 +2°C° 0 mm 1 mps 749 mmHg 74%
    15:00 +1°C° 0 mm 1 mps 749 mmHg 74%
    16:00 -1°C° 0 mm 2 mps 749 mmHg 74%
    17:00 -1°C° 0 mm 2 mps 749 mmHg 74%
    18:00 -1°C° 0 mm 2 mps 749 mmHg 73%
    19:00 -1°C° 0 mm 2 mps 749 mmHg 71%
    20:00 -1°C° 0 mm 3 mps 748 mmHg 69%
    21:00 -1°C° 0 mm 3 mps 748 mmHg 68%
    22:00 -1°C° 0 mm 3 mps 748 mmHg 68%
    23:00 -1°C° 0 mm 3 mps 748 mmHg 67%

    21 December, Saturday

    Time Temperature Precipitation Wind Pressure Humidity
    00:00 -1°C° 0 mm 3 mps 748 mmHg 66%
    01:00 -1°C° 0 mm 3 mps 747 mmHg 66%
    02:00 -1°C° 0 mm 3 mps 747 mmHg 65%
    03:00 -1°C° 0 mm 3 mps 747 mmHg 65%
    04:00 -2°C° 0 mm 4 mps 746 mmHg 64%
    05:00 -2°C° 0 mm 4 mps 746 mmHg 63%
    06:00 -2°C° 0 mm 4 mps 746 mmHg 62%
    07:00 -2°C° 0 mm 4 mps 746 mmHg 61%
    08:00 -2°C° 0 mm 4 mps 746 mmHg 60%
    09:00 -2°C° 0 mm 4 mps 746 mmHg 58%
    10:00 -1°C° 0 mm 4 mps 746 mmHg 55%
    11:00 -1°C° 0 mm 4 mps 745 mmHg 52%
    12:00 -1°C° 0 mm 4 mps 745 mmHg 52%
    13:00 -1°C° 0 mm 4 mps 745 mmHg 52%
    14:00 -1°C° 0 mm 4 mps 745 mmHg 52%
    15:00 -1°C° 0 mm 4 mps 745 mmHg 55%
    16:00 -1°C° 0 mm 4 mps 745 mmHg 57%
    17:00 -1°C° 0 mm 4 mps 745 mmHg 60%
    18:00 -1°C° 0 mm 4 mps 744 mmHg 63%
    19:00 -1°C° 0 mm 4 mps 744 mmHg 65%
    20:00 -1°C° 0 mm 4 mps 744 mmHg 68%
    21:00 -1°C° 0 mm 4 mps 744 mmHg 71%
    22:00 -1°C° 0 mm 4 mps 744 mmHg 73%
    23:00 -1°C° 0 mm 4 mps 744 mmHg 75%
    Show more